Flag for Germany Weather past 2 weeks in Görlitz, Saxony, Germany

Now
66 °F

Clear.


Feels Like: 66 °F
Forecast: 63 / 91 °F
Wind: 5 mph from Southwest

Location: Goerlitz

Current Time: Aug 3, 2015 at 3:17:37 AM

Latest Report: Aug 3, 2015 at 2:00 AM


Visibility: 25 mi

Pressure: 30.11 "Hg

Humidity: 60%

Dew point: 52 °F

Location of GörlitzLocation

Historic Weather in Görlitz — Graph

°F

Görlitz temperature yesterday

Maximum temperature yesterday: 83 °F (at 4:00 PM)
Minimum temperature yesterday: 64 °F (at 5:00 AM)
Average temperature yesterday: 74 °F

Past Weeks' High & Low Weather Summary

 TemperatureHumidityPressure
High92 °F (Jul 22, 5:00 PM)97% (Jul 23, 3:00 AM)30.12 "Hg (Jul 23, 3:00 AM)
Low47 °F (Aug 1, 3:00 AM)22% (Aug 1, 4:00 PM)29.60 "Hg (Jul 27, 3:00 PM)
Average68 °F60%29.88 "Hg
* Reported Jul 19 2:00 AM — Aug 3 2:00 AM, Görlitz, Weather by CustomWeather, © 2015

Note: Actual official high and low records may vary slightly from our data, if they occured in-between our weather recording intervals... More about our weather records

Advertising

Görlitz weather history for previous 24 hours

 ConditionsComfort  
Time TempWeatherWind HumidityBarometerVisibility
2:00 AM
Mon, Aug 3
66 °FClear.5 mph60%30.11 "Hg25 mi
1:00 AM65 °FClear.5 mph66%30.12 "Hg22 mi
11:00 PM
Sun, Aug 2
69 °FPassing clouds.5 mph53%30.11 "Hg25 mi
10:00 PM71 °FPassing clouds.5 mph44%30.10 "Hg25 mi
9:00 PM73 °FOvercast.3 mph38%30.09 "Hg34 mi
8:00 PM76 °FOvercast.5 mph34%30.07 "Hg34 mi
7:00 PM80 °FOvercast.6 mph32%30.06 "Hg34 mi
6:00 PM82 °FOvercast.1 mph33%30.05 "Hg28 mi
5:00 PM82 °FOvercast.2 mph31%30.06 "Hg28 mi
4:00 PM83 °FPartly sunny.3 mph29%30.06 "Hg31 mi
3:00 PM82 °FScattered clouds.5 mph30%30.06 "Hg28 mi
2:00 PM82 °FPartly sunny.3 mph30%30.06 "Hg28 mi
1:00 PM81 °FPartly sunny.3 mph33%30.07 "Hg31 mi
12:00 PM80 °FOvercast.3 mph38%30.07 "Hg34 mi
11:00 AM79 °FPartly sunny.3 mph40%30.06 "Hg25 mi
10:00 AM75 °FOvercast.3 mph45%30.06 "Hg22 mi
9:00 AM70 °FOvercast.1 mph51%30.06 "Hg22 mi
8:00 AM65 °FOvercast.1 mph67%30.06 "Hg25 mi
7:00 AM65 °FOvercast.1 mph60%30.05 "Hg31 mi
5:00 AM64 °FOvercast.2 mph60%30.02 "Hg19 mi
4:00 AM64 °FOvercast.2 mph58%30.02 "Hg19 mi
Weather by CustomWeather, © 2015

See weather overviewHow to use our weather pages